Weather reports worldwide

Advertisment
Aguilas, Spain (8432): temperature & dewpoint: 12.10.2018 03:00:00 - 18.10.2018 03:00:00 (CEST)Aguilas, Spain (8432): wind speed & gusts: 12.10.2018 03:00:00 - 18.10.2018 03:00:00 (CEST)Aguilas, Spain (8432): wind direction: 12.10.2018 03:00:00 - 18.10.2018 03:00:00 (CEST)Aguilas, Spain (8432): reduced air pressure: 12.10.2018 03:00:00 - 18.10.2018 03:00:00 (CEST)Aguilas, Spain (8432): visibility: 12.10.2018 03:00:00 - 18.10.2018 03:00:00 (CEST)Aguilas, Spain (8432): sunshine duration: 12.10.2018 03:00:00 - 18.10.2018 03:00:00 (CEST)Aguilas, Spain (8432): precipitation: 12.10.2018 03:00:00 - 18.10.2018 03:00:00 (CEST)
Date & Time tt [°C] td [°C] ff [km/h] ff [kn] fx [km/h] fx [kn] dd ppp [hPa] vv [km] sd [min] rr [mm]
18.10.2018 03:00:00 19,1 11,7 8 4 13 7 NE 1011,6 20 0 0,0
18.10.2018 02:00:00 18,5 11,3 2 1 10 5 NNE 1012,2 20 0 -
18.10.2018 01:00:00 20,1 11,6 4 2 8 5 NE 1012,7 20 0 0,0
18.10.2018 00:00:00 19,8 11,6 2 1 8 4 ENE 1013,5 20 0 0,0
17.10.2018 23:00:00 19,7 11,7 4 2 7 4 NE 1013,6 20 0 0,0
17.10.2018 22:00:00 20,8 12,2 5 3 10 5 NE 1013,3 20 0 0,0
17.10.2018 21:00:00 21,5 12,3 4 2 16 9 NNW 1013,4 20 0 0,0
17.10.2018 20:00:00 22,0 12,2 6 4 21 12 SW 1013,3 20 12 -
17.10.2018 19:00:00 23,3 12,3 7 4 25 13 SW 1013,1 20 60 0,0
17.10.2018 18:00:00 24,0 11,7 13 7 23 12 SSW 1013,2 20 55 0,0
17.10.2018 17:00:00 24,9 12,1 12 7 24 13 SSW 1013,5 20 60 0,0
17.10.2018 16:00:00 25,3 10,3 10 5 24 13 S 1013,5 20 60 0,0
17.10.2018 15:00:00 24,9 10,0 13 7 22 12 S 1014,1 20 60 0,0
17.10.2018 14:00:00 25,0 9,7 10 5 28 15 S 1015,0 20 60 -
17.10.2018 13:00:00 24,7 10,5 18 10 31 17 SE 1015,6 20 60 0,0
17.10.2018 12:00:00 24,6 9,3 10 5 29 16 SSE 1015,7 20 60 0,0
17.10.2018 11:00:00 23,4 9,8 8 4 23 12 N 1016,2 20 60 0,0
17.10.2018 10:00:00 21,0 9,9 10 5 23 12 NNW 1016,1 20 22 0,0
17.10.2018 09:00:00 19,8 9,3 4 2 13 7 N 1015,7 20 0 0,0
17.10.2018 08:00:00 19,6 9,4 9 5 20 11 NNE 1015,7 20 0 -
17.10.2018 07:00:00 19,0 9,4 6 3 20 11 N 1015,3 20 0 0,0
17.10.2018 06:00:00 19,4 9,6 8 5 17 9 N 1015,1 20 0 0,0
17.10.2018 05:00:00 19,0 10,0 5 3 17 9 N 1015,3 20 0 0,0
17.10.2018 04:00:00 18,9 10,8 8 4 22 12 N 1015,6 20 0 0,0
17.10.2018 03:00:00 18,9 11,7 7 4 21 12 N 1016,1 20 0 0,0
17.10.2018 02:00:00 18,4 11,2 3 2 6 4 N 1016,2 20 0 -
17.10.2018 01:00:00 18,8 11,9 4 2 9 5 NW 1016,3 20 0 0,0
17.10.2018 00:00:00 20,4 11,9 4 2 20 11 NNE 1016,4 20 0 0,0
16.10.2018 23:00:00 21,1 12,0 10 5 20 11 ENE 1016,0 20 0 0,0
16.10.2018 22:00:00 21,4 11,4 8 5 18 10 NE 1015,5 20 0 0,0
16.10.2018 21:00:00 21,5 10,6 5 3 12 6 NNE 1015,0 20 0 0,0
16.10.2018 20:00:00 21,7 10,5 5 3 18 10 ENE 1014,2 20 0 -
16.10.2018 19:00:00 22,4 10,5 9 5 24 13 E 1013,5 20 6 0,0
16.10.2018 18:00:00 23,7 9,3 15 8 32 17 E 1013,2 20 58 0,0
16.10.2018 17:00:00 23,9 8,7 17 9 34 18 E 1013,0 20 52 0,0
16.10.2018 16:00:00 24,1 8,1 16 9 32 17 ENE 1012,8 20 60 0,0
16.10.2018 15:00:00 24,2 8,5 16 9 36 19 E 1012,7 20 58 0,0
16.10.2018 14:00:00 23,8 8,3 17 9 29 15 ENE 1012,9 20 53 -
16.10.2018 13:00:00 23,1 8,4 16 8 29 15 E 1013,1 20 60 0,0
16.10.2018 12:00:00 22,1 8,5 8 4 20 11 ENE 1013,1 20 15 0,0
16.10.2018 11:00:00 20,6 9,2 9 5 16 9 ENE 1012,9 20 0 0,0
16.10.2018 10:00:00 19,3 9,4 5 3 18 10 ENE 1012,3 20 0 0,0
16.10.2018 09:00:00 18,8 9,8 8 4 19 11 NE 1011,7 20 0 0,0
16.10.2018 08:00:00 18,0 10,6 6 4 14 8 NNE 1011,2 20 0 -
16.10.2018 07:00:00 17,9 11,0 5 3 10 6 WNW 1010,9 20 0 0,0
16.10.2018 06:00:00 18,4 10,3 4 2 10 5 ESE 1010,5 20 0 0,0
16.10.2018 05:00:00 18,1 10,6 3 1 13 7 E 1010,1 20 0 0,0
16.10.2018 04:00:00 17,7 12,3 10 6 22 12 NE 1010,5 20 0 0,4
16.10.2018 03:00:00 18,6 10,2 12 7 26 14 NW 1011,1 20 0 0,0
16.10.2018 02:00:00 19,4 12,4 4 2 10 5 N 1010,6 20 0 -
16.10.2018 01:00:00 19,6 9,4 5 3 9 5 N 1010,3 20 0 0,0
16.10.2018 00:00:00 19,6 9,2 6 4 9 5 ENE 1010,6 20 0 0,0
15.10.2018 23:00:00 19,1 9,6 4 2 10 6 NW 1010,7 20 0 0,0
15.10.2018 22:00:00 19,4 9,8 5 3 9 5 N 1010,2 20 0 0,0
15.10.2018 21:00:00 20,0 9,8 2 1 10 5 N 1010,2 20 0 0,0
15.10.2018 20:00:00 21,5 10,3 5 3 11 6 NNE 1009,9 20 0 -
15.10.2018 19:00:00 23,1 8,8 3 2 22 12 NNW 1009,7 20 55 0,0
15.10.2018 18:00:00 23,3 10,6 8 5 21 11 SSW 1009,8 20 60 0,0
15.10.2018 17:00:00 22,7 9,8 12 6 25 14 SSW 1009,6 20 60 0,0
15.10.2018 16:00:00 22,7 7,7 13 7 27 15 SW 1009,8 20 60 0,0
15.10.2018 15:00:00 23,2 5,6 14 8 29 15 SSW 1010,3 20 49 0,0
15.10.2018 14:00:00 23,8 4,1 10 5 35 19 SW 1011,1 20 49 -
15.10.2018 13:00:00 24,5 3,2 8 4 21 12 W 1011,6 20 60 0,0
15.10.2018 12:00:00 22,0 4,5 7 4 19 10 WNW 1012,2 20 57 0,0
15.10.2018 11:00:00 21,7 5,1 11 6 27 15 WNW 1012,4 20 60 0,0
15.10.2018 10:00:00 20,2 5,5 15 8 27 15 W 1012,1 20 60 0,0
15.10.2018 09:00:00 17,6 5,1 17 9 35 19 NW 1011,5 20 5 0,0
15.10.2018 08:00:00 16,9 5,5 11 6 35 19 WNW 1011,0 20 0 -
15.10.2018 07:00:00 16,9 5,8 16 9 27 15 NW 1010,8 20 0 0,0
15.10.2018 06:00:00 17,3 5,6 15 8 40 22 WNW 1010,4 20 0 0,0
15.10.2018 05:00:00 17,3 5,3 21 11 36 19 WNW 1010,2 20 0 0,0
15.10.2018 04:00:00 17,4 5,0 16 8 32 18 W 1010,9 20 0 0,0
15.10.2018 03:00:00 17,9 4,8 18 10 40 22 WNW 1011,0 20 0 0,0
15.10.2018 02:00:00 17,8 5,0 15 8 35 19 WNW 1011,1 20 0 -
15.10.2018 01:00:00 18,3 5,1 16 9 32 17 WNW 1010,9 20 0 0,0
15.10.2018 00:00:00 18,3 4,8 13 7 31 17 WNW 1010,7 20 0 0,0
14.10.2018 23:00:00 18,9 4,6 17 9 40 21 WNW 1010,2 20 0 0,0
14.10.2018 22:00:00 19,3 3,8 16 9 33 18 WNW 1009,4 20 0 0,0
14.10.2018 21:00:00 20,1 5,8 18 10 42 23 NW 1008,5 20 0 0,0
14.10.2018 20:00:00 21,5 4,5 24 13 48 26 NW 1007,0 20 3 -
14.10.2018 19:00:00 23,0 6,7 16 9 39 21 WNW 1006,2 20 0 0,0
14.10.2018 18:00:00 24,2 17,2 5 3 18 10 SSW 1005,4 20 3 0,0
14.10.2018 17:00:00 25,5 17,1 10 5 29 15 W 1005,6 20 60 0,0
14.10.2018 16:00:00 23,5 19,4 14 8 40 21 W 1006,2 20 17 0,6
14.10.2018 15:00:00 22,5 18,5 17 9 36 20 SSW 1006,8 9 0 1,2
14.10.2018 14:00:00 23,5 17,5 9 5 18 10 SSW 1008,3 10 0 -
14.10.2018 13:00:00 23,8 17,1 9 5 18 10 S 1009,5 18 15 0,0
14.10.2018 12:00:00 23,1 16,9 5 3 10 6 S 1010,4 20 4 0,0
14.10.2018 11:00:00 23,0 16,6 4 2 10 5 S 1010,8 20 15 0,0
14.10.2018 10:00:00 22,1 16,4 3 1 6 3 N 1010,6 20 50 0,0
14.10.2018 09:00:00 19,3 15,3 3 2 9 5 NNW 1010,4 16 8 0,0
14.10.2018 08:00:00 19,0 14,9 6 4 9 5 N 1010,5 17 0 -
14.10.2018 07:00:00 19,1 15,5 5 3 8 4 NNE 1010,7 16 0 0,0
14.10.2018 06:00:00 18,8 15,1 1 1 6 4 N 1011,3 15 0 0,0
14.10.2018 05:00:00 19,6 16,0 4 2 9 5 NE 1011,6 17 0 0,0
14.10.2018 04:00:00 19,2 15,4 3 1 6 4 NNW 1012,5 14 0 0,0
14.10.2018 03:00:00 19,9 15,8 2 1 8 4 NE 1013,0 18 0 0,0
14.10.2018 02:00:00 20,6 15,8 3 2 7 4 NE 1013,7 19 0 -
14.10.2018 01:00:00 21,3 16,7 3 2 8 4 NE 1014,3 20 0 0,0
14.10.2018 00:00:00 22,1 17,2 3 2 6 4 ENE 1014,9 20 0 0,0
13.10.2018 23:00:00 22,5 17,4 3 2 8 4 E 1015,3 20 0 0,0
13.10.2018 22:00:00 22,9 17,6 5 3 8 5 NE 1015,4 20 0 0,0
13.10.2018 21:00:00 22,5 17,2 5 3 13 7 E 1015,5 20 0 0,0
13.10.2018 20:00:00 23,1 17,3 7 4 15 8 E 1015,6 20 0 -
13.10.2018 19:00:00 23,4 17,4 12 6 21 11 SE 1015,7 20 0 0,0
13.10.2018 18:00:00 23,9 17,1 13 7 25 13 SE 1015,9 20 19 0,0
13.10.2018 17:00:00 24,7 17,5 14 8 27 15 SE 1016,3 20 60 0,0
13.10.2018 16:00:00 25,3 17,5 9 5 25 14 SE 1016,9 20 57 0,0
13.10.2018 15:00:00 25,4 17,3 18 10 27 15 ESE 1017,5 20 60 0,0
13.10.2018 14:00:00 - - - - - - - - - - -
13.10.2018 13:00:00 25,2 15,5 17 9 26 14 SE 1019,1 20 60 0,0
13.10.2018 12:00:00 25,5 16,4 12 7 20 11 SE 1019,5 20 60 0,0
13.10.2018 11:00:00 24,9 17,1 6 4 12 7 SE 1019,9 20 60 0,0
13.10.2018 10:00:00 23,3 16,8 2 1 6 3 NNE 1019,9 20 60 0,0
13.10.2018 09:00:00 20,0 15,9 3 2 9 5 N 1019,5 20 21 0,0
13.10.2018 08:00:00 19,3 15,8 4 2 8 4 NNE 1019,3 16 0 -
13.10.2018 07:00:00 19,6 15,9 3 1 9 5 NNE 1019,5 15 0 0,0
13.10.2018 06:00:00 19,8 15,6 1 1 7 4 NNE 1019,7 19 0 0,0
13.10.2018 05:00:00 20,5 16,6 5 3 10 5 NNE 1020,0 20 0 0,0
13.10.2018 04:00:00 20,5 16,7 5 3 8 4 NNE 1020,5 18 0 0,0
13.10.2018 03:00:00 20,9 16,9 3 1 7 4 NNE 1021,1 18 0 0,0
13.10.2018 02:00:00 21,2 17,2 3 2 8 4 NE 1021,3 16 0 -
13.10.2018 01:00:00 21,4 17,6 5 3 8 4 NE 1021,4 20 0 0,0
13.10.2018 00:00:00 21,7 17,9 3 1 6 3 E 1021,8 18 0 0,0
12.10.2018 23:00:00 22,1 17,9 0 0 6 3 N 1022,0 17 0 0,0
12.10.2018 22:00:00 22,7 18,2 4 2 6 4 NNW 1022,0 20 0 0,0
12.10.2018 21:00:00 22,9 18,2 3 2 6 3 E 1021,9 20 0 0,0
12.10.2018 20:00:00 23,3 18,2 4 2 10 5 SE 1021,6 20 0 -
12.10.2018 19:00:00 23,7 18,3 5 3 14 8 SSE 1021,2 20 18 0,0
12.10.2018 18:00:00 24,8 18,7 7 4 18 10 SSE 1021,1 20 60 0,0
12.10.2018 17:00:00 25,3 18,5 10 5 19 11 SSE 1021,2 20 60 0,0
12.10.2018 16:00:00 25,6 18,0 10 5 20 11 SSE 1021,3 20 60 0,0
12.10.2018 15:00:00 26,1 17,7 10 6 24 13 SSE 1021,7 20 60 0,0
12.10.2018 14:00:00 26,0 17,4 12 7 22 12 SSE 1022,2 20 60 -
12.10.2018 13:00:00 26,5 17,0 8 5 15 8 SSE 1022,4 20 60 0,0
12.10.2018 12:00:00 26,2 17,3 8 4 13 7 S 1022,6 20 60 0,0
12.10.2018 11:00:00 25,9 17,5 3 2 8 4 SSW 1022,4 20 60 0,0
12.10.2018 10:00:00 23,5 18,6 1 1 6 3 NE 1021,8 20 60 0,0
12.10.2018 09:00:00 20,9 17,3 5 3 9 5 NNE 1021,0 20 14 0,0
12.10.2018 08:00:00 19,5 16,1 1 1 8 4 NNW 1020,2 17 0 -
12.10.2018 07:00:00 19,5 16,1 2 1 7 4 N 1019,7 20 0 0,0
12.10.2018 06:00:00 20,0 16,5 3 2 10 5 NNE 1019,1 20 0 0,0
12.10.2018 05:00:00 20,2 16,2 4 2 8 4 ENE 1019,0 20 0 0,0
12.10.2018 04:00:00 20,8 16,8 4 2 8 5 NNE 1018,9 20 0 0,0
12.10.2018 03:00:00 20,9 16,7 5 3 9 5 NE 1019,1 20 0 0,0

tt = temperature
td = dewpoint
ff = wind speed
fx = gusts
dd = wind direction
ppp = reduced air pressure
vv = visibility
sd = sunshine duration
rr = precipitation

Next stations